Regional Weather Roundup
Issued by NWS State College, PA

Home | Current Version | Previous Version | Text Only | Print | Product List | Glossary On
Versions: 1 2 3 4 5 6 7 8 9 10 11 12 13 14 15 16 17 18 19 20 21 22 23 24 25 26 27 28 29 30 31 32 33 34 35 36 37 38 39 40 41 42 43 44 45 46 47 48 49 50
000
ASUS41 KCTP 271503
RWRCTP

REGIONAL WEATHER ROUNDUP
NATIONAL WEATHER SERVICE STATE COLLEGE PA
1100 AM EDT TUE JUN 27 2017

Note: "fair" indicates few or no clouds below 12,000 feet with no
significant weather and/or obstructions to visibility.

* = STATION THAT DOES NOT REPORT PRECIPITATION /E.G. RAIN...SNOW...ETC/
    THUNDER OR FOG.

PAZ002>004-007>009-013>016-020>023-029>032-271600-
WESTERN PENNSYLVANIA

CITY           SKY/WX    TMP DP  RH WIND       PRES   REMARKS
ERIE           PTSUNNY   61  50  67 W12G22    30.03R
MEADVILLE      CLOUDY    57  50  77 W12       30.05R
FRANKLIN*      PTSUNNY   61  46  59 W12       30.05S
NEW CASTLE     PTSUNNY   60  48  64 W10G18    30.07S
BEAVER COUNTY  PTSUNNY   63  48  59 NW6       30.07S
BUTLER*        PTSUNNY   63  46  55 W10       30.06S
PITTSBURGH INT MOSUNNY   63  46  54 W12       30.07S
PITTSBURGH     PTSUNNY   63  45  51 W9        30.06S
INDIANA*       PTSUNNY   63  50  63 W13       30.07F
LATROBE        NOT AVBL
WASHINGTON CO* MOSUNNY   64  48  55 SW8G17    30.10F
$$

PAZ004>006-010>012-017>019-024>028-033>037-041-042-045-046-049>053-271600-
CENTRAL PENNSYLVANIA

CITY           SKY/WX    TMP DP  RH WIND       PRES   REMARKS
BRADFORD       CLOUDY    57  47  69 W13G20    30.01S
DUBOIS         CLOUDY    59  49  69 W10G21    30.03S
CLEARFIELD     PTSUNNY   63  49  60 SW10G21   30.03S
JOHNSTOWN      MOSUNNY   61  49  64 W10       30.06S
ALTOONA        MOSUNNY   65  50  58 W10       30.04F
STATE COLLEGE  PTSUNNY   64  52  63 SW12      30.02F
WILLIAMSPORT   PTSUNNY   69  54  58 W10       29.99F
SELINSGROVE    MOSUNNY   68  58  70 S7        30.01F
FT INDIANTOWN  MOSUNNY   70  55  59 W8        30.02R
CAPITAL CITY   MOSUNNY   71  53  52 VRB5      30.02S
HARRISBURG     MOSUNNY   71  53  52 NW10      30.01S
YORK           SUNNY     72  53  51 W9        30.02F
$$

PAZ038>040-043-044-047-048-054-055-060>062-067>071-271600-
EASTERN PENNSYLVANIA

CITY           SKY/WX    TMP DP  RH WIND       PRES   REMARKS
SCRANTON       SUNNY     66  54  65 W12       30.01S
MOUNT POCONO   SUNNY     63  48  58 SW9       30.02F
ALLENTOWN      MOSUNNY   70  55  59 VRB5      30.01F
QUAKERTOWN*    MOSUNNY   72  57  60 W3        30.02F
READING        SUNNY     73  58  59 NW7       30.00F
LANCASTER      MOSUNNY   73  56  54 W10       30.01F
COATESVILLE    SUNNY     72  57  60 CALM      30.03F
POTTSTOWN      MOSUNNY   68  58  70 CALM      30.02F
BLUE BELL        N/A    N/A N/A N/A MISG        N/A
DOYLESTOWN     MOSUNNY   69  61  75 NW5       30.01S
WILLOW GROVE   NOT AVBL
NORTH PHILA    MOSUNNY   72  63  73 CALM      30.02F
PHILADELPHIA   MOSUNNY   71  60  68 S3        30.01F
$$



USA.gov is the U.S. government's official web portal to all federal, state and local government web resources and services.